[[{"header":{"parameterUnit":"m.s-1","parameterCategory":1,"la1":30.2991,"la2":30.254,"lo1":-89.0895,"lo2":-89.0444,"dy":0.0017,"dx":0.0017,"nx":28,"ny":28,"refTime":"2024-08-20T09:00:00:Z","depth":0,"parameterNumber":2,"parameterNumberName":"U-component_of_WINDS"},"data":[0,0,0,0,0,0,0,0,0,0,0,0,0,0,0,0,0,0,0,0,0,0,0,0,0,0,0,0,0,0,0,0,0,0,0,0,0,0,0,0,0,0,0,0,0,0,0,0,0,0,0,0,0,0,0,0,0,0,1.2977,1.2977,0,1.2938,1.2937,1.2937,1.2921,1.2921,1.2921,1.2921,1.2878,1.2877,1.2875,0,0,0,0,0,0,0,0,0,0,0,0,0,1.3036,1.3035,1.2977,1.2977,1.2976,1.2938,1.2937,1.2937,1.2921,1.2921,1.2921,1.2921,1.2878,1.2877,1.2875,0,0,0,0,0,0,0,0,0,0,0,0,0,1.3005,1.3035,1.2977,1.2964,1.2962,1.2938,1.2937,1.2937,1.2921,1.2921,1.2921,1.2921,1.2879,1.2877,1.2875,1.2861,0,0,1.2869,1.2869,0,0,0,0,0,0,0,0,1.3007,1.3003,1.2966,1.2965,1.2963,1.2935,1.2942,1.2911,1.2921,1.2937,1.2921,1.2921,1.2896,1.2893,1.2885,1.2859,1.2857,1.2869,1.2868,1.2867,1.2867,0,0,0,0,0,0,0,1.3009,1.3005,1.2962,1.2966,1.2964,1.2959,1.2955,1.2936,1.2916,1.2935,1.2934,1.293,1.2896,1.2887,1.2884,1.2856,1.2869,1.2868,1.2867,1.2866,1.2815,1.2815,0,0,0,0,0,0,1.3014,1.3007,1.2963,1.2961,1.2986,1.2958,1.2953,1.2943,1.2916,1.2912,1.293,1.2929,1.289,1.2886,1.2883,1.2864,1.2867,1.2866,1.2865,1.2816,1.2815,1.2815,0,0,0,0,0,0,1.3015,1.301,1.2965,1.2983,1.2977,1.2957,1.2946,1.2943,1.2934,1.2912,1.2908,1.2925,1.289,1.2885,1.2866,1.2862,1.2865,1.2863,1.2816,1.2816,1.2815,1.2826,0,0,0,0,0,0,1.3017,1.3011,1.3006,1.2983,1.2976,1.295,1.2946,1.2942,1.2931,1.293,1.2907,1.2903,1.289,1.2869,1.2865,1.2859,1.2862,1.2816,1.2816,1.2815,1.2826,1.2826,1.2826,0,0,0,0,0,1.3019,1.301,1.3006,1.3,1.2969,1.295,1.2945,1.2932,1.2931,1.2925,1.2911,1.2904,1.2863,1.2868,1.2862,1.2856,1.2816,1.2816,1.2815,1.2826,1.2826,1.2826,0,0,0,0,0,0,1.3031,1.3006,1.3002,1.2985,1.2969,1.2947,1.2939,1.2932,1.2916,1.2916,1.2899,1.2893,1.2876,1.2864,1.2869,1.2841,1.2839,1.2838,1.2849,1.2849,1.2849,1.2852,1.286,0,0,0,0,0,1.3032,1.3019,1.2997,1.2984,1.2977,1.296,1.295,1.2941,1.2925,1.2918,1.2902,1.2885,1.2869,1.2858,1.2842,1.2824,1.2819,1.2818,1.2818,1.2818,1.2817,1.2806,1.2806,1.2813,1.2813,1.2814,0,0,1.3033,1.3018,1.301,1.2986,1.2974,1.296,1.2954,1.294,1.2929,1.2915,1.2897,1.2885,1.2865,1.2847,1.2838,1.2836,1.2813,1.2817,1.2818,1.2816,1.2806,1.2805,1.2804,1.2813,1.2813,1.2813,0,0,1.3027,1.3015,1.3003,1.299,1.2971,1.296,1.2957,1.2936,1.2928,1.2909,1.2899,1.2885,1.2857,1.2844,1.2833,1.2824,1.2816,1.2819,1.2819,1.2809,1.2809,1.2808,1.2804,1.2803,1.2817,1.2817,1.2817,0,1.3031,1.301,1.2997,1.2983,1.2973,1.2961,1.2948,1.2937,1.2913,1.2906,1.2905,1.287,1.2856,1.2834,1.2832,1.2824,1.2819,1.2821,1.281,1.2809,1.2808,1.2804,1.2803,1.2818,1.2818,1.2818,1.2818,0,1.3015,1.3001,1.2993,1.2972,1.2961,1.2947,1.2932,1.2922,1.2914,1.2902,1.2883,1.2866,1.2846,1.284,1.2832,1.2818,1.2817,1.2813,1.2811,1.2808,1.2804,1.2803,1.2819,1.2818,1.2818,1.2818,0,0,1.3015,1.2987,1.2985,1.2975,1.2954,1.2942,1.2928,1.291,1.2901,1.2886,1.2873,1.285,1.2847,1.2835,1.2825,1.2816,1.2809,1.2813,1.2812,1.2813,1.2792,1.2795,1.2793,1.2805,1.2804,1.2804,1.2794,0,1.3006,1.2982,1.297,1.295,1.2937,1.2926,1.2914,1.2899,1.2888,1.2874,1.2862,1.2846,1.2842,1.2835,1.2826,1.2812,1.2805,1.2813,1.2792,1.2791,1.2797,1.2791,1.2794,1.2785,1.2792,1.2792,1.2792,0,1.2993,1.2979,1.2958,1.2938,1.2932,1.2922,1.2904,1.2891,1.2874,1.2867,1.2854,1.2844,1.2829,1.2829,1.2806,1.2812,1.2803,1.2795,1.2794,1.2791,1.2791,1.2788,1.2782,1.2781,1.2789,1.2789,1.279,0,1.2995,1.297,1.2954,1.2946,1.2923,1.2916,1.2906,1.2889,1.2879,1.2863,1.2856,1.2839,1.2829,1.2815,1.2801,1.2802,1.278,1.2779,1.2773,1.2773,1.2768,1.2768,1.276,1.2763,1.2763,1.2763,1.2763,0,1.2986,1.2974,1.2955,1.2945,1.2931,1.2917,1.2903,1.2892,1.2878,1.2865,1.2854,1.2843,1.2825,1.2811,1.28,1.2783,1.2779,1.2772,1.2769,1.2772,1.2773,1.2766,1.2766,1.2763,1.2763,1.2763,1.2763,0,1.2985,1.2972,1.2954,1.2935,1.2929,1.292,1.2902,1.2892,1.2881,1.2865,1.2861,1.2843,1.2826,1.2811,1.2788,1.2781,1.2763,1.276,1.2769,1.2768,1.2762,1.2763,1.2749,1.2746,1.2751,1.2751,1.2751,0,1.298,1.2971,1.295,1.2942,1.2932,1.2918,1.2908,1.2894,1.2884,1.2864,1.2856,1.2839,1.2824,1.2797,1.2782,1.2764,1.276,1.2756,1.2757,1.2761,1.276,1.276,1.2759,1.2756,1.2756,1.2756,1.2756,0,1.2973,1.2967,1.2953,1.2937,1.2926,1.2913,1.2899,1.2892,1.2876,1.2865,1.2848,1.2836,1.2814,1.2796,1.2777,1.2766,1.2758,1.2756,1.2754,1.2757,1.2763,1.2759,1.2769,1.2756,1.2756,1.2756,1.2756,1.2756,1.2969,1.296,1.2945,1.293,1.2918,1.2906,1.2895,1.2884,1.287,1.2851,1.2843,1.2826,1.2809,1.2783,1.2772,1.2758,1.2756,1.2753,1.2752,1.2751,1.2752,1.2766,1.2754,1.2754,1.2754,1.2754,1.2754,0,1.2961,1.2951,1.2937,1.2919,1.2907,1.2902,1.2887,1.2877,1.2862,1.2848,1.2834,1.2814,1.2797,1.2781,1.2763,1.2755,1.2751,1.2751,1.2751,1.2748,1.2754,1.2758,1.2754,1.2754,1.2754,1.2754,1.2754,1.2754,1.2955,1.294,1.2932,1.2911,1.29,1.2884,1.2876,1.2864,1.2852,1.2831,1.2818,1.2808,1.2792,1.2774,1.2758,1.2753,1.2747,1.2748,1.2742,1.2748,1.2748,1.2748,1.2751,1.2747,1.2747,1.2738,1.2737,1.2737]},{"header":{"parameterUnit":"m.s-1","parameterCategory":1,"la1":30.2991,"la2":30.254,"lo1":-89.0895,"lo2":-89.0444,"dy":0.0017,"dx":0.0017,"nx":28,"ny":28,"refTime":"2024-08-20T09:00:00:Z","depth":0,"parameterNumber":3,"parameterNumberName":"V-component_of_WINDS"},"data":[0,0,0,0,0,0,0,0,0,0,0,0,0,0,0,0,0,0,0,0,0,0,0,0,0,0,0,0,0,0,0,0,0,0,0,0,0,0,0,0,0,0,0,0,0,0,0,0,0,0,0,0,0,0,0,0,0,0,-3.5629,-3.563,0,-3.5726,-3.5727,-3.5728,-3.5693,-3.5691,-3.5689,-3.5687,-3.5782,-3.5787,-3.5791,0,0,0,0,0,0,0,0,0,0,0,0,0,-3.5412,-3.5416,-3.5629,-3.5631,-3.5632,-3.5726,-3.5727,-3.5728,-3.5694,-3.5691,-3.5689,-3.5686,-3.5781,-3.5786,-3.5792,0,0,0,0,0,0,0,0,0,0,0,0,0,-3.5507,-3.5418,-3.5629,-3.5626,-3.5627,-3.5725,-3.5727,-3.5728,-3.5694,-3.5691,-3.5688,-3.5685,-3.5779,-3.5786,-3.5793,-3.5899,0,0,-3.5813,-3.5816,0,0,0,0,0,0,0,0,-3.5502,-3.5515,-3.5625,-3.5626,-3.5627,-3.5694,-3.5685,-3.5786,-3.5695,-3.5669,-3.5687,-3.5683,-3.5756,-3.5764,-3.5789,-3.5903,-3.5907,-3.5814,-3.5818,-3.5821,-3.5823,0,0,0,0,0,0,0,-3.5495,-3.5511,-3.5667,-3.5627,-3.5628,-3.5619,-3.5629,-3.5704,-3.5729,-3.5671,-3.5668,-3.568,-3.5755,-3.5783,-3.5791,-3.5909,-3.5814,-3.582,-3.5824,-3.5827,-3.6114,-3.6117,0,0,0,0,0,0,-3.5489,-3.5506,-3.5664,-3.567,-3.5556,-3.5625,-3.5636,-3.5676,-3.5728,-3.5733,-3.5683,-3.5678,-3.5773,-3.5783,-3.5794,-3.5922,-3.5821,-3.5827,-3.5831,-3.6111,-3.6115,-3.6119,0,0,0,0,0,0,-3.5484,-3.5503,-3.566,-3.5587,-3.5607,-3.5632,-3.5677,-3.568,-3.5707,-3.5737,-3.5741,-3.5707,-3.577,-3.5785,-3.5873,-3.5924,-3.583,-3.5837,-3.6106,-3.6112,-3.6117,-3.6178,0,0,0,0,0,0,-3.5478,-3.5502,-3.5543,-3.5589,-3.5611,-3.5739,-3.568,-3.5684,-3.5719,-3.5714,-3.576,-3.5765,-3.5769,-3.5863,-3.588,-3.5932,-3.5842,-3.6102,-3.6109,-3.6115,-3.6171,-3.6184,-3.6196,0,0,0,0,0,-3.5471,-3.5556,-3.5546,-3.5565,-3.5663,-3.5742,-3.5754,-3.5758,-3.5723,-3.5765,-3.5784,-3.5763,-3.5916,-3.5873,-3.5891,-3.5946,-3.6099,-3.6107,-3.6115,-3.6166,-3.6182,-3.6195,0,0,0,0,0,0,-3.5515,-3.5562,-3.5551,-3.5654,-3.5695,-3.5736,-3.5788,-3.5775,-3.5826,-3.5819,-3.582,-3.5831,-3.5922,-3.5943,-3.5893,-3.6051,-3.6002,-3.6014,-3.6034,-3.605,-3.6062,-3.6055,-3.5848,0,0,0,0,0,-3.5538,-3.5599,-3.5636,-3.5723,-3.5744,-3.5763,-3.5797,-3.5797,-3.5838,-3.5855,-3.5881,-3.5921,-3.5977,-3.6015,-3.6069,-3.6174,-3.6183,-3.6221,-3.6233,-3.6243,-3.6253,-3.6309,-3.6326,-3.6145,-3.6145,-3.6145,0,0,-3.5583,-3.5616,-3.5655,-3.5733,-3.5764,-3.5826,-3.5777,-3.5845,-3.5891,-3.5864,-3.595,-3.597,-3.6015,-3.6112,-3.6156,-3.6132,-3.6305,-3.6253,-3.6261,-3.6266,-3.6319,-3.6336,-3.6352,-3.615,-3.6149,-3.6149,0,0,-3.5698,-3.573,-3.5806,-3.5838,-3.5887,-3.5899,-3.5917,-3.5961,-3.5974,-3.6059,-3.6041,-3.6094,-3.6193,-3.6225,-3.6254,-3.6382,-3.6364,-3.6399,-3.6463,-3.6517,-3.6532,-3.6544,-3.6589,-3.6605,-3.6409,-3.6409,-3.6409,0,-3.5749,-3.5843,-3.5846,-3.5916,-3.595,-3.593,-3.6006,-3.6037,-3.61,-3.6124,-3.6097,-3.6219,-3.6248,-3.6352,-3.6383,-3.6408,-3.6427,-3.6393,-3.653,-3.6542,-3.6554,-3.6596,-3.6613,-3.6413,-3.6413,-3.6412,-3.6412,0,-3.5902,-3.5967,-3.6023,-3.6085,-3.6126,-3.6198,-3.6211,-3.6252,-3.6248,-3.6262,-3.6349,-3.6383,-3.6443,-3.6468,-3.6464,-3.6571,-3.6555,-3.6529,-3.6479,-3.6575,-3.6615,-3.6631,-3.6419,-3.6417,-3.6416,-3.6415,0,0,-3.6048,-3.6112,-3.6132,-3.616,-3.6211,-3.6261,-3.6332,-3.6392,-3.6426,-3.647,-3.6529,-3.6612,-3.6588,-3.6622,-3.6621,-3.6669,-3.6767,-3.6637,-3.6638,-3.6659,-3.6885,-3.6904,-3.6923,-3.6756,-3.6759,-3.6761,-3.6881,0,-3.6167,-3.6293,-3.6298,-3.6412,-3.6472,-3.6453,-3.6515,-3.6553,-3.6568,-3.662,-3.6636,-3.6695,-3.666,-3.6679,-3.6726,-3.6745,-3.6812,-3.6736,-3.6809,-3.6811,-3.6798,-3.6944,-3.6965,-3.7076,-3.6897,-3.69,-3.6902,0,-3.6322,-3.6372,-3.6493,-3.6535,-3.656,-3.6616,-3.6671,-3.6721,-3.6763,-3.677,-3.6808,-3.68,-3.6871,-3.682,-3.6917,-3.6866,-3.6895,-3.6909,-3.6913,-3.692,-3.6862,-3.6954,-3.7112,-3.7129,-3.6926,-3.6924,-3.6922,0,-3.6416,-3.6513,-3.6597,-3.6622,-3.6674,-3.6713,-3.6736,-3.6775,-3.681,-3.6858,-3.688,-3.6935,-3.6965,-3.7007,-3.7015,-3.6977,-3.7112,-3.7061,-3.7119,-3.7119,-3.7148,-3.7146,-3.7313,-3.7169,-3.7168,-3.7168,-3.7168,0,-3.6548,-3.6622,-3.664,-3.6692,-3.6774,-3.6779,-3.6859,-3.6879,-3.6914,-3.6968,-3.6956,-3.7007,-3.7013,-3.7066,-3.7072,-3.7151,-3.7165,-3.7172,-3.7172,-3.7173,-3.7172,-3.7192,-3.7184,-3.7172,-3.7171,-3.7171,-3.717,0,-3.6666,-3.6681,-3.6772,-3.6814,-3.6826,-3.6885,-3.692,-3.6969,-3.6982,-3.7052,-3.7068,-3.7089,-3.7151,-3.7162,-3.7234,-3.7238,-3.7332,-3.7325,-3.7318,-3.7317,-3.7374,-3.7368,-3.7559,-3.7584,-3.7424,-3.7426,-3.7427,0,-3.6749,-3.6806,-3.6854,-3.689,-3.6915,-3.6973,-3.701,-3.7016,-3.7054,-3.7105,-3.7148,-3.7208,-3.7256,-3.7354,-3.7376,-3.743,-3.7424,-3.7487,-3.7432,-3.743,-3.7424,-3.742,-3.7425,-3.7497,-3.7499,-3.7501,-3.7502,0,-3.6894,-3.6899,-3.6952,-3.7008,-3.7052,-3.7096,-3.7138,-3.7168,-3.718,-3.7223,-3.7286,-3.7323,-3.7397,-3.7456,-3.751,-3.7533,-3.7519,-3.7519,-3.7535,-3.7536,-3.7529,-3.7533,-3.7346,-3.7514,-3.7513,-3.7512,-3.7511,-3.7511,-3.6997,-3.7046,-3.7088,-3.7147,-3.7179,-3.7219,-3.7267,-3.7287,-3.734,-3.7401,-3.7401,-3.7469,-3.7508,-3.758,-3.7606,-3.7659,-3.7639,-3.7662,-3.7668,-3.7674,-3.7679,-3.7522,-3.7669,-3.7669,-3.7668,-3.7668,-3.7668,0,-3.7141,-3.7166,-3.7221,-3.7281,-3.7327,-3.7311,-3.7357,-3.7396,-3.7457,-3.7495,-3.7543,-3.7615,-3.7672,-3.7698,-3.7754,-3.7791,-3.7786,-3.7806,-3.7803,-3.7808,-3.7694,-3.7674,-3.7809,-3.7809,-3.7809,-3.7809,-3.7809,-3.7809,-3.7221,-3.7303,-3.7313,-3.7411,-3.7435,-3.7503,-3.753,-3.7566,-3.7597,-3.7678,-3.7726,-3.7742,-3.7775,-3.7834,-3.7885,-3.7891,-3.7912,-3.7934,-3.7937,-3.783,-3.7816,-3.7802,-3.7783,-3.7939,-3.7939,-3.8046,-3.8047,-3.8048]}]]